#Datum;Uhrzeit;WR;Pac;DaySum;Status;WR;Pac;DaySum;Status;Pdc1;Udc;Temp;WR;Pac;DaySum;Status;Pdc1;Udc;Temp;WR;Pac;DaySum;Status;Pdc1;Udc;Temp;WR;Pac;DaySum;Status;Pdc1;Pdc2;Udc1;Udc2;Temp;WR;Pac;DaySum;Status;Pdc1;Pdc2;Udc1;Udc2;Temp;WR;Pac;DaySum;Status;Pdc1;Udc;Temp;WR;Pac;DaySum;Status;Pdc1;Udc;Temp;WR;Pac;DaySum;Status;Pdc1;Udc;Temp
02.03.21;23:55:00;1;351;13462;0;2;0;25849;0;0;0;0;3;0;16126;0;0;0;0;4;0;22900;0;0;0;0;5;0;0;0;0;0;0;0;0;6;0;38611;0;0;0;0;0;0;7;0;35350;0;0;0;0;8;0;34507;0;0;0;0;9;0;18465;0;0;0;0
02.03.21;23:50:00;1;316;13434;0;2;0;25849;0;0;0;0;3;0;16126;0;0;0;0;4;0;22900;0;0;0;0;5;0;0;0;0;0;0;0;0;6;0;38611;0;0;0;0;0;0;7;0;35350;0;0;0;0;8;0;34507;0;0;0;0;9;0;18465;0;0;0;0
02.03.21;23:45:00;1;342;13407;0;2;0;25849;0;0;0;0;3;0;16126;0;0;0;0;4;0;22900;0;0;0;0;5;0;0;0;0;0;0;0;0;6;0;38611;0;0;0;0;0;0;7;0;35350;0;0;0;0;8;0;34507;0;0;0;0;9;0;18465;0;0;0;0
02.03.21;23:40:00;1;364;13379;0;2;0;25849;0;0;0;0;3;0;16126;0;0;0;0;4;0;22900;0;0;0;0;5;0;0;0;0;0;0;0;0;6;0;38611;0;0;0;0;0;0;7;0;35350;0;0;0;0;8;0;34507;0;0;0;0;9;0;18465;0;0;0;0
02.03.21;23:35:00;1;377;13349;0;2;0;25849;0;0;0;0;3;0;16126;0;0;0;0;4;0;22900;0;0;0;0;5;0;0;0;0;0;0;0;0;6;0;38611;0;0;0;0;0;0;7;0;35350;0;0;0;0;8;0;34507;0;0;0;0;9;0;18465;0;0;0;0
02.03.21;23:30:00;1;400;13317;0;2;0;25849;0;0;0;0;3;0;16126;0;0;0;0;4;0;22900;0;0;0;0;5;0;0;0;0;0;0;0;0;6;0;38611;0;0;0;0;0;0;7;0;35350;0;0;0;0;8;0;34507;0;0;0;0;9;0;18465;0;0;0;0
02.03.21;23:25:00;1;443;13284;0;2;0;25849;0;0;0;0;3;0;16126;0;0;0;0;4;0;22900;0;0;0;0;5;0;0;0;0;0;0;0;0;6;0;38611;0;0;0;0;0;0;7;0;35350;0;0;0;0;8;0;34507;0;0;0;0;9;0;18465;0;0;0;0
02.03.21;23:20:00;1;359;13246;0;2;0;25849;0;0;0;0;3;0;16126;0;0;0;0;4;0;22900;0;0;0;0;5;0;0;0;0;0;0;0;0;6;0;38611;0;0;0;0;0;0;7;0;35350;0;0;0;0;8;0;34507;0;0;0;0;9;0;18465;0;0;0;0
02.03.21;23:15:00;1;636;13215;0;2;0;25849;0;0;0;0;3;0;16126;0;0;0;0;4;0;22900;0;0;0;0;5;0;0;0;0;0;0;0;0;6;0;38611;0;0;0;0;0;0;7;0;35350;0;0;0;0;8;0;34507;0;0;0;0;9;0;18465;0;0;0;0
02.03.21;23:10:00;1;302;13158;0;2;0;25849;0;0;0;0;3;0;16126;0;0;0;0;4;0;22900;0;0;0;0;5;0;0;0;0;0;0;0;0;6;0;38611;0;0;0;0;0;0;7;0;35350;0;0;0;0;8;0;34507;0;0;0;0;9;0;18465;0;0;0;0
02.03.21;23:05:00;1;302;13133;0;2;0;25849;0;0;0;0;3;0;16126;0;0;0;0;4;0;22900;0;0;0;0;5;0;0;0;0;0;0;0;0;6;0;38611;0;0;0;0;0;0;7;0;35350;0;0;0;0;8;0;34507;0;0;0;0;9;0;18465;0;0;0;0
02.03.21;23:00:00;1;316;13108;0;2;0;25849;0;0;0;0;3;0;16126;0;0;0;0;4;0;22900;0;0;0;0;5;0;0;0;0;0;0;0;0;6;0;38611;0;0;0;0;0;0;7;0;35350;0;0;0;0;8;0;34507;0;0;0;0;9;0;18465;0;0;0;0
02.03.21;22:55:00;1;413;13081;0;2;0;25849;0;0;0;0;3;0;16126;0;0;0;0;4;0;22900;0;0;0;0;5;0;0;0;0;0;0;0;0;6;0;38611;2;0;0;0;0;0;7;0;35350;0;0;0;0;8;0;34507;0;0;0;0;9;0;18465;0;0;0;0
02.03.21;22:50:00;1;320;13050;0;2;0;25849;0;0;0;0;3;0;16126;0;0;0;0;4;0;22900;0;0;0;0;5;0;0;0;0;0;0;0;0;6;0;38611;2;0;0;0;0;0;7;0;35350;0;0;0;0;8;0;34507;0;0;0;0;9;0;18465;0;0;0;0
02.03.21;22:45:00;1;334;13023;0;2;0;25849;0;0;0;0;3;0;16126;0;0;0;0;4;0;22900;0;0;0;0;5;0;0;0;0;0;0;0;0;6;0;38611;2;0;0;0;0;0;7;0;35350;0;0;0;0;8;0;34507;0;0;0;0;9;0;18465;0;0;0;0
02.03.21;22:40:00;1;381;12996;0;2;0;25849;0;0;0;0;3;0;16126;0;0;0;0;4;0;22900;0;0;0;0;5;0;0;0;0;0;0;0;0;6;0;38611;2;0;0;0;0;0;7;0;35350;0;0;0;0;8;0;34507;0;0;0;0;9;0;18465;0;0;0;0
02.03.21;22:35:00;1;624;12964;0;2;0;25849;0;0;0;0;3;0;16126;0;0;0;0;4;0;22900;0;0;0;0;5;0;0;0;0;0;0;0;0;6;0;38611;2;0;0;0;0;0;7;0;35350;0;0;0;0;8;0;34507;0;0;0;0;9;0;18465;0;0;0;0
02.03.21;22:30:00;1;535;12901;0;2;0;25849;0;0;0;0;3;0;16126;0;0;0;0;4;0;22900;0;0;0;0;5;0;0;0;0;0;0;0;0;6;0;38611;2;0;0;0;0;0;7;0;35350;0;0;0;0;8;0;34507;0;0;0;0;9;0;18465;0;0;0;0
02.03.21;22:25:00;1;528;12857;0;2;0;25849;0;0;0;0;3;0;16126;0;0;0;0;4;0;22900;0;0;0;0;5;0;0;0;0;0;0;0;0;6;0;38611;2;0;0;0;0;0;7;0;35350;0;0;0;0;8;0;34507;0;0;0;0;9;0;18465;0;0;0;0
02.03.21;22:20:00;1;427;12811;0;2;0;25849;0;0;0;0;3;0;16126;0;0;0;0;4;0;22900;0;0;0;0;5;0;0;0;0;0;0;0;0;6;0;38611;2;0;0;0;0;0;7;0;35350;0;0;0;0;8;0;34507;0;0;0;0;9;0;18465;0;0;0;0
02.03.21;22:15:00;1;776;12775;0;2;0;25849;0;0;0;0;3;0;16126;0;0;0;0;4;0;22900;0;0;0;0;5;0;0;0;0;0;0;0;0;6;0;38611;2;0;0;0;0;0;7;0;35350;0;0;0;0;8;0;34507;0;0;0;0;9;0;18465;0;0;0;0
02.03.21;22:10:00;1;511;12705;0;2;0;25849;0;0;0;0;3;0;16126;0;0;0;0;4;0;22900;0;0;0;0;5;0;0;0;0;0;0;0;0;6;0;38611;2;0;0;0;0;0;7;0;35350;0;0;0;0;8;0;34507;0;0;0;0;9;0;18465;0;0;0;0
02.03.21;22:05:00;1;541;12663;0;2;0;25849;0;0;0;0;3;0;16126;0;0;0;0;4;0;22900;0;0;0;0;5;0;0;0;0;0;0;0;0;6;0;38611;2;0;0;0;0;0;7;0;35350;0;0;0;0;8;0;34507;0;0;0;0;9;0;18465;0;0;0;0
02.03.21;22:00:00;1;577;12618;0;2;0;25849;0;0;0;0;3;0;16126;0;0;0;0;4;0;22900;0;0;0;0;5;0;0;0;0;0;0;0;0;6;0;38611;2;0;0;0;0;0;7;0;35350;0;0;0;0;8;0;34507;0;0;0;0;9;0;18465;0;0;0;0
02.03.21;21:55:00;1;553;12569;0;2;0;25849;0;0;0;0;3;0;16126;0;0;0;0;4;0;22900;0;0;0;0;5;0;0;0;0;0;0;0;0;6;0;38611;2;0;0;0;0;0;7;0;35350;0;0;0;0;8;0;34507;0;0;0;0;9;0;18465;0;0;0;0
02.03.21;21:50:00;1;544;12522;0;2;0;25849;0;0;0;0;3;0;16126;0;0;0;0;4;0;22900;0;0;0;0;5;0;0;0;0;0;0;0;0;6;0;38611;2;0;0;0;0;0;7;0;35350;0;0;0;0;8;0;34507;0;0;0;0;9;0;18465;0;0;0;0
02.03.21;21:45:00;1;569;12476;0;2;0;25849;0;0;0;0;3;0;16126;0;0;0;0;4;0;22900;0;0;0;0;5;0;0;0;0;0;0;0;0;6;0;38611;2;0;0;0;0;0;7;0;35350;0;0;0;0;8;0;34507;0;0;0;0;9;0;18465;0;0;0;0
02.03.21;21:40:00;1;542;12428;0;2;0;25849;0;0;0;0;3;0;16126;0;0;0;0;4;0;22900;0;0;0;0;5;0;0;0;0;0;0;0;0;6;0;38611;2;0;0;0;0;0;7;0;35350;0;0;0;0;8;0;34507;0;0;0;0;9;0;18465;0;0;0;0
02.03.21;21:35:00;1;551;12383;0;2;0;25849;0;0;0;0;3;0;16126;0;0;0;0;4;0;22900;0;0;0;0;5;0;0;0;0;0;0;0;0;6;0;38611;2;0;0;0;0;0;7;0;35350;0;0;0;0;8;0;34507;0;0;0;0;9;0;18465;0;0;0;0
02.03.21;21:30:00;1;561;12337;0;2;0;25849;0;0;0;0;3;0;16126;0;0;0;0;4;0;22900;0;0;0;0;5;0;0;0;0;0;0;0;0;6;0;38611;2;0;0;0;0;0;7;0;35350;0;0;0;0;8;0;34507;0;0;0;0;9;0;18465;0;0;0;0
02.03.21;21:25:00;1;583;12291;0;2;0;25849;0;0;0;0;3;0;16126;0;0;0;0;4;0;22900;0;0;0;0;5;0;0;0;0;0;0;0;0;6;0;38611;2;0;0;0;0;0;7;0;35350;0;0;0;0;8;0;34507;0;0;0;0;9;0;18465;0;0;0;0
02.03.21;21:20:00;1;591;12242;0;2;0;25849;0;0;0;0;3;0;16126;0;0;0;0;4;0;22900;0;0;0;0;5;0;0;0;0;0;0;0;0;6;0;38611;2;0;0;0;0;0;7;0;35350;0;0;0;0;8;0;34507;0;0;0;0;9;0;18465;0;0;0;0
02.03.21;21:15:00;1;539;12193;0;2;0;25849;0;0;0;0;3;0;16126;0;0;0;0;4;0;22900;0;0;0;0;5;0;0;0;0;0;0;0;0;6;0;38611;2;0;0;0;0;0;7;0;35350;0;0;0;0;8;0;34507;0;0;0;0;9;0;18465;0;0;0;0
02.03.21;21:10:00;1;566;12148;0;2;0;25849;0;0;0;0;3;0;16126;0;0;0;0;4;0;22900;0;0;0;0;5;0;0;0;0;0;0;0;0;6;0;38611;2;0;0;0;0;0;7;0;35350;0;0;0;0;8;0;34507;0;0;0;0;9;0;18465;0;0;0;0
02.03.21;21:05:00;1;547;12101;0;2;0;25849;0;0;0;0;3;0;16126;0;0;0;0;4;0;22900;0;0;0;0;5;0;0;0;0;0;0;0;0;6;0;38611;2;0;0;0;0;0;7;0;35350;0;0;0;0;8;0;34507;0;0;0;0;9;0;18465;0;0;0;0
02.03.21;21:00:00;1;566;12055;0;2;0;25849;0;0;0;0;3;0;16126;0;0;0;0;4;0;22900;0;0;0;0;5;0;0;0;0;0;0;0;0;6;0;38611;2;0;0;0;0;0;7;0;35350;0;0;0;0;8;0;34507;0;0;0;0;9;0;18465;0;0;0;0
02.03.21;20:55:00;1;552;12009;0;2;0;25849;0;0;0;0;3;0;16126;0;0;0;0;4;0;22900;0;0;0;0;5;0;0;0;0;0;0;0;0;6;0;38611;2;0;0;0;0;0;7;0;35350;0;0;0;0;8;0;34507;0;0;0;0;9;0;18465;0;0;0;0
02.03.21;20:50:00;1;490;11961;0;2;0;25849;0;0;0;0;3;0;16126;0;0;0;0;4;0;22900;0;0;0;0;5;0;0;0;0;0;0;0;0;6;0;38611;2;0;0;0;0;0;7;0;35350;0;0;0;0;8;0;34507;0;0;0;0;9;0;18465;0;0;0;0
02.03.21;20:45:00;1;494;11920;0;2;0;25849;0;0;0;0;3;0;16126;0;0;0;0;4;0;22900;0;0;0;0;5;0;0;0;0;0;0;0;0;6;0;38611;2;0;0;0;0;0;7;0;35350;0;0;0;0;8;0;34507;0;0;0;0;9;0;18465;0;0;0;0
02.03.21;20:40:00;1;588;11878;0;2;0;25849;0;0;0;0;3;0;16126;0;0;0;0;4;0;22900;0;0;0;0;5;0;0;0;0;0;0;0;0;6;0;38611;2;0;0;0;0;0;7;0;35350;0;0;0;0;8;0;34507;0;0;0;0;9;0;18465;0;0;0;0
02.03.21;20:35:00;1;619;11829;0;2;0;25849;0;0;0;0;3;0;16126;0;0;0;0;4;0;22900;0;0;0;0;5;0;0;0;0;0;0;0;0;6;0;38611;2;0;0;0;0;0;7;0;35350;0;0;0;0;8;0;34507;0;0;0;0;9;0;18465;0;0;0;0
02.03.21;20:30:00;1;690;11778;0;2;0;25849;0;0;0;0;3;0;16126;0;0;0;0;4;0;22900;0;0;0;0;5;0;0;0;0;0;0;0;0;6;0;38611;2;0;0;0;0;0;7;0;35350;0;0;0;0;8;0;34507;0;0;0;0;9;0;18465;0;0;0;0
02.03.21;20:25:00;1;661;11720;0;2;0;25849;0;0;0;0;3;0;16126;0;0;0;0;4;0;22900;0;0;0;0;5;0;0;0;0;0;0;0;0;6;0;38611;2;0;0;0;0;0;7;0;35350;0;0;0;0;8;0;34507;0;0;0;0;9;0;18465;0;0;0;0
02.03.21;20:20:00;1;760;11665;0;2;0;25849;0;0;0;0;3;0;16126;0;0;0;0;4;0;22900;0;0;0;0;5;0;0;0;0;0;0;0;0;6;0;38611;2;0;0;0;0;0;7;0;35350;0;0;0;0;8;0;34507;0;0;0;0;9;0;18465;0;0;0;0
02.03.21;20:15:00;1;947;11599;0;2;0;25849;0;0;0;0;3;0;16126;0;0;0;0;4;0;22900;0;0;0;0;5;0;0;0;0;0;0;0;0;6;0;38611;2;0;0;0;0;0;7;0;35350;0;0;0;0;8;0;34507;0;0;0;0;9;0;18465;0;0;0;0
02.03.21;20:10:00;1;879;11519;0;2;0;25849;0;0;0;0;3;0;16126;0;0;0;0;4;0;22900;0;0;0;0;5;0;0;0;0;0;0;0;0;6;0;38611;2;0;0;0;0;0;7;0;35350;0;0;0;0;8;0;34507;0;0;0;0;9;0;18465;0;0;0;0
02.03.21;20:05:00;1;1017;11445;0;2;0;25849;0;0;0;0;3;0;16126;0;0;0;0;4;0;22900;0;0;0;0;5;0;0;0;0;0;0;0;0;6;0;38611;2;0;0;0;0;0;7;0;35350;0;0;0;0;8;0;34507;0;0;0;0;9;0;18465;0;0;0;0
02.03.21;20:00:00;1;1075;11362;0;2;0;25849;0;0;0;0;3;0;16126;0;0;0;0;4;0;22900;0;0;0;0;5;0;0;0;0;0;0;0;0;6;0;38611;2;0;0;0;0;0;7;0;35350;0;0;0;0;8;0;34507;0;0;0;0;9;0;18465;0;0;0;0
02.03.21;19:55:00;1;1171;11270;0;2;0;25849;0;0;0;0;3;0;16126;0;0;0;0;4;0;22900;0;0;0;0;5;0;0;0;0;0;0;0;0;6;0;38611;2;0;0;0;0;0;7;0;35350;0;0;0;0;8;0;34507;0;0;0;0;9;0;18465;0;0;0;0
02.03.21;19:50:00;1;1097;11172;0;2;0;25849;0;0;0;0;3;0;16126;0;0;0;0;4;0;22900;0;0;0;0;5;0;0;0;0;0;0;0;0;6;0;38611;2;0;0;0;0;0;7;0;35350;0;0;0;0;8;0;34507;0;0;0;0;9;0;18465;0;0;0;0
02.03.21;19:45:00;1;1088;11080;0;2;0;25849;0;0;0;0;3;0;16126;0;0;0;0;4;0;22900;0;0;0;0;5;0;0;0;0;0;0;0;0;6;0;38611;2;0;0;0;0;0;7;0;35350;0;0;0;0;8;0;34507;0;0;0;0;9;0;18465;0;0;0;0
02.03.21;19:40:00;1;1148;10989;0;2;0;25849;0;0;0;0;3;0;16126;0;0;0;0;4;0;22900;0;0;0;0;5;0;0;0;0;0;0;0;0;6;0;38611;2;0;0;0;0;0;7;0;35350;0;0;0;0;8;0;34507;0;0;0;0;9;0;18465;0;0;0;0
02.03.21;19:35:00;1;1516;10894;0;2;0;25849;0;0;0;0;3;0;16126;0;0;0;0;4;0;22900;0;0;0;0;5;0;0;0;0;0;0;0;0;6;0;38611;0;0;0;0;0;0;7;0;35350;0;0;0;0;8;0;34507;0;0;0;0;9;0;18465;0;0;0;0
02.03.21;19:30:00;1;1784;10770;0;2;0;25849;0;0;0;0;3;0;16126;0;0;0;0;4;0;22900;0;0;0;0;5;0;0;0;0;0;0;0;0;6;0;38611;2;0;0;0;0;0;7;0;35350;0;0;0;0;8;0;34507;0;0;0;0;9;0;18465;0;0;0;0
02.03.21;19:25:00;1;2071;10591;0;2;0;25849;0;0;0;0;3;0;16126;0;0;0;0;4;0;22900;0;0;0;0;5;0;0;0;0;0;0;0;0;6;0;38611;2;0;0;0;0;0;7;0;35350;0;0;0;0;8;0;34507;0;0;0;0;9;0;18465;0;0;0;0
02.03.21;19:20:00;1;1539;10411;0;2;0;25849;0;0;0;0;3;0;16126;0;0;0;0;4;0;22900;0;0;0;0;5;0;0;0;0;0;0;0;0;6;0;38611;2;0;0;0;0;0;7;0;35350;0;0;0;0;8;0;34507;0;0;0;0;9;0;18465;0;0;0;0
02.03.21;19:15:00;1;2168;10219;0;2;0;25849;0;0;0;0;3;0;16126;0;0;0;0;4;0;22900;0;0;0;0;5;0;0;0;0;0;0;0;0;6;0;38611;2;0;0;0;0;0;7;0;35350;0;0;0;0;8;0;34507;0;0;0;0;9;0;18465;0;0;0;0
02.03.21;19:10:00;1;2331;10054;0;2;0;25849;0;0;0;0;3;0;16126;0;0;0;0;4;0;22900;0;0;0;0;5;0;0;0;0;0;0;0;0;6;0;38611;2;0;0;0;0;0;7;0;35350;0;0;0;0;8;0;34507;0;0;0;0;9;0;18465;0;0;0;0
02.03.21;19:05:00;1;2626;9832;0;2;0;25849;0;0;0;0;3;0;16126;0;0;0;0;4;0;22900;0;0;0;0;5;0;0;0;0;0;0;0;0;6;0;38611;2;0;0;0;0;0;7;0;35350;0;0;0;0;8;0;34507;0;0;0;0;9;0;18465;0;0;0;0
02.03.21;19:00:00;1;2772;9655;0;2;0;25849;0;0;0;0;3;0;16126;0;0;0;0;4;0;22900;0;0;0;0;5;0;0;0;0;0;0;0;0;6;0;38611;2;0;0;0;0;0;7;0;35350;0;0;0;0;8;0;34507;0;0;0;0;9;0;18465;0;0;0;0
02.03.21;18:55:00;1;1695;9471;0;2;0;25849;0;0;0;0;3;0;16126;0;0;0;0;4;0;22900;0;0;0;0;5;0;0;0;0;0;0;0;0;6;0;38611;2;0;0;0;0;0;7;0;35350;0;0;0;0;8;0;34507;0;0;0;0;9;0;18465;0;0;0;0
02.03.21;18:50:00;1;2034;9258;0;2;0;25849;0;0;0;0;3;0;16126;0;0;0;0;4;0;22900;0;0;0;0;5;0;0;0;0;0;0;0;0;6;0;38611;2;0;0;0;0;0;7;0;35350;0;0;0;0;8;0;34507;0;0;0;0;9;0;18465;0;0;0;0
02.03.21;18:45:00;1;2497;9065;0;2;0;25849;0;0;0;0;3;0;16126;0;0;0;0;4;0;22900;0;0;0;0;5;0;0;0;0;0;0;0;0;6;0;38611;2;0;0;0;0;0;7;0;35350;0;0;0;0;8;0;34507;0;0;0;0;9;0;18465;0;0;0;0
02.03.21;18:40:00;1;1662;8868;0;2;0;25849;0;0;0;0;3;0;16126;0;0;0;0;4;0;22900;0;0;0;0;5;0;0;0;0;0;0;0;0;6;0;38611;2;0;0;0;0;0;7;0;35350;0;0;0;0;8;0;34507;0;0;0;0;9;0;18465;0;0;0;0
02.03.21;18:35:00;1;2537;8701;0;2;0;25849;0;0;0;0;3;0;16126;0;0;0;0;4;0;22900;0;0;0;0;5;0;0;0;0;0;0;0;0;6;0;38611;2;0;0;0;0;0;7;0;35350;0;0;0;0;8;0;34507;0;0;0;0;9;0;18465;0;0;0;0
02.03.21;18:30:00;1;4092;8464;0;2;0;25849;0;0;0;0;3;0;16126;0;0;0;0;4;0;22900;0;0;0;0;5;0;0;0;0;0;0;0;0;6;0;38611;2;0;0;0;0;0;7;0;35350;0;0;0;0;8;0;34507;0;0;0;0;9;0;18465;0;0;0;0
02.03.21;18:25:00;1;317;8113;0;2;0;25849;0;0;0;0;3;0;16126;0;0;0;0;4;0;22900;0;0;0;0;5;0;0;0;0;0;0;0;0;6;0;38611;2;0;0;0;0;0;7;0;35350;0;0;0;0;8;0;34507;0;0;0;0;9;0;18465;0;0;0;0
02.03.21;18:20:00;1;301;8087;0;2;0;25849;0;0;0;0;3;0;16126;0;0;0;0;4;0;22900;0;0;0;0;5;0;0;0;0;0;0;0;0;6;0;38611;2;0;0;0;0;0;7;0;35350;0;0;0;0;8;0;34507;0;0;0;0;9;0;18465;0;0;0;0
02.03.21;18:15:00;1;275;8062;0;2;0;25849;0;0;232;16;3;0;16126;6;0;296;20;4;0;22900;0;0;0;0;5;0;0;0;0;0;0;0;0;6;0;38611;2;0;0;0;0;0;7;0;35350;0;0;0;0;8;0;34507;0;0;0;0;9;0;18465;0;0;0;0
02.03.21;18:10:00;1;307;8038;0;2;0;25849;6;0;314;19;3;0;16126;6;0;378;21;4;0;22900;2;0;72;21;5;0;0;0;0;0;0;0;0;6;0;38611;2;0;0;0;0;0;7;0;35350;0;0;0;0;8;0;34507;0;0;0;0;9;0;18465;0;0;0;0
02.03.21;18:05:00;1;369;8012;0;2;0;25849;6;0;358;20;3;0;16126;6;1;424;21;4;0;22900;1;0;133;21;5;0;0;0;0;0;0;0;0;6;0;38611;23;5;4;350;280;27;7;0;35350;0;0;244;22;8;0;34507;0;0;242;21;9;0;18465;0;0;249;16
02.03.21;18:00:00;1;331;7982;0;2;0;25849;6;0;380;20;3;2;16126;6;6;445;22;4;0;22900;1;0;180;22;5;0;0;0;0;0;0;0;0;6;0;38611;23;2;7;433;304;28;7;0;35350;6;0;368;27;8;0;34507;6;0;367;26;9;0;18465;6;0;371;20
02.03.21;17:55:00;1;316;7955;0;2;0;25849;6;0;395;21;3;1;16126;6;4;488;22;4;0;22900;1;0;218;23;5;0;0;0;0;0;0;0;0;6;0;38611;23;4;10;386;572;28;7;0;35350;6;1;421;28;8;0;34507;6;1;411;26;9;0;18465;6;1;444;21
02.03.21;17:50:00;1;282;7928;0;2;14;25849;6;28;383;22;3;0;16126;6;0;526;23;4;0;22900;3;0;206;24;5;0;0;0;0;0;0;0;0;6;41;38611;1;18;26;500;486;30;7;0;35350;6;0;471;28;8;1;34507;6;5;442;27;9;0;18465;6;3;484;21
02.03.21;17:45:00;1;257;7904;0;2;169;25848;4;207;354;23;3;96;16126;4;128;408;23;4;107;22900;3;111;215;24;5;0;0;0;0;0;0;0;0;6;71;38608;4;25;33;476;463;30;7;50;35350;4;88;400;29;8;4;34507;6;12;455;28;9;0;18465;6;4;525;22
02.03.21;17:40:00;1;293;7883;0;2;328;25834;4;372;355;24;3;185;16118;4;222;411;24;4;251;22891;5;261;232;25;5;0;0;0;0;0;0;0;0;6;93;38601;4;44;56;476;463;30;7;157;35346;4;197;406;29;8;25;34506;6;47;411;28;9;1;18465;6;5;538;22
02.03.21;17:35:00;1;348;7858;0;2;506;25806;4;552;353;25;3;280;16102;4;322;419;25;4;414;22870;5;431;237;25;5;0;0;0;0;0;0;0;0;6;135;38593;4;74;91;476;462;30;7;338;35332;4;378;416;30;8;56;34504;4;94;420;29;9;3;18465;6;6;553;23
02.03.21;17:30:00;1;302;7829;0;2;677;25764;4;731;354;26;3;390;16079;4;435;423;25;4;541;22835;5;563;239;26;5;0;0;0;0;0;0;0;0;6;163;38582;4;88;93;476;463;30;7;478;35304;4;531;471;31;8;101;34499;4;136;386;29;9;3;18465;3;9;555;23
02.03.21;17:25:00;1;266;7804;0;2;875;25707;4;932;352;27;3;491;16046;4;542;428;26;4;705;22790;5;734;241;27;5;0;0;0;0;0;0;0;0;6;233;38568;4;105;113;476;463;30;7;717;35264;4;774;457;31;8;308;34491;4;345;389;30;9;6;18465;6;11;559;24
02.03.21;17:20:00;1;257;7781;0;2;964;25635;4;1027;352;28;3;588;16006;4;642;428;26;4;771;22732;5;803;247;27;5;0;0;0;0;0;0;0;0;6;328;38548;4;156;182;511;544;31;7;916;35205;4;980;424;32;8;541;34467;4;584;444;30;9;9;18464;6;13;562;24
02.03.21;17:15:00;1;259;7759;0;2;1114;25555;4;1182;356;29;3;668;15956;4;725;438;26;4;812;22668;5;845;227;27;5;0;0;0;0;0;0;0;0;6;447;38520;4;228;247;597;568;31;7;1221;35128;4;1293;451;32;8;729;34421;4;790;476;31;9;40;18463;6;57;494;25
02.03.21;17:10:00;1;275;7738;0;2;1264;25462;4;1341;356;30;3;747;15901;4;806;429;27;4;956;22602;5;996;219;28;5;0;0;0;0;0;0;0;0;6;554;38482;4;273;284;602;573;31;7;1500;35028;4;1588;481;33;8;846;34361;4;907;487;32;9;66;18461;4;97;481;26
02.03.21;17:05:00;1;359;7714;0;2;1413;25357;4;1500;361;31;3;859;15839;4;925;429;27;4;1056;22522;5;1100;219;28;5;0;0;0;0;0;0;0;0;6;689;38435;4;349;367;604;576;31;7;1760;34902;4;1857;483;33;8;873;34290;4;926;396;32;9;69;18455;4;112;502;27
02.03.21;17:00:00;1;274;7684;0;2;1528;25239;4;1616;363;32;3;943;15767;4;1010;434;28;4;1153;22434;5;1201;223;29;5;0;0;0;0;0;0;0;0;6;822;38377;4;395;419;605;583;31;7;1949;34755;4;2055;484;34;8;1179;34218;4;1240;362;33;9;80;18449;4;117;484;28
02.03.21;16:55:00;1;282;7660;0;2;1697;25111;4;1793;370;33;3;1026;15688;4;1095;438;28;4;1326;22337;5;1381;237;30;5;0;0;0;0;0;0;0;0;6;985;38307;4;477;495;605;580;31;7;2153;34592;4;2272;487;34;8;1657;34118;4;1741;391;34;9;87;18442;4;112;395;28
02.03.21;16:50:00;1;362;7637;0;2;1834;24971;4;1936;372;34;3;1102;15603;4;1172;431;29;4;1505;22228;5;1567;240;30;5;0;0;0;0;0;0;0;0;6;1129;38225;4;546;537;606;578;32;7;2309;34416;4;2437;484;35;8;1987;33983;4;2090;429;34;9;99;18435;4;129;354;29
02.03.21;16:45:00;1;362;7607;0;2;2023;24818;4;2133;382;35;3;1176;15511;4;1247;430;29;4;1694;22102;5;1764;236;30;5;0;0;0;0;0;0;0;0;6;1310;38128;4;671;670;611;579;32;7;2511;34221;4;2642;485;35;8;2302;33815;4;2416;448;35;9;326;18426;4;363;353;31
02.03.21;16:40:00;1;370;7577;0;2;2136;24649;4;2257;384;36;3;1226;15413;4;1302;439;29;4;1731;21961;5;1804;224;31;5;0;0;0;0;0;0;0;0;6;1473;38018;4;771;753;608;579;32;7;2666;34012;4;2801;484;35;8;2529;33623;4;2660;463;35;9;793;18400;4;846;355;32
02.03.21;16:35:00;1;285;7546;0;2;2315;24471;4;2443;389;37;3;1302;15311;4;1378;430;29;4;1770;21817;5;1844;218;31;5;0;0;0;0;0;0;0;0;6;1652;37894;4;824;824;608;578;32;7;2847;33789;4;2993;481;36;8;2776;33412;4;2918;473;36;9;1048;18333;4;1109;365;33
02.03.21;16:30:00;1;258;7521;0;2;2434;24278;4;2564;381;37;3;1346;15202;4;1423;431;30;4;1741;21669;5;1814;234;31;5;0;0;0;0;0;0;0;0;6;1817;37755;4;950;936;607;578;32;7;3005;33552;4;3155;487;36;8;2954;33181;4;3108;479;36;9;1200;18245;4;1269;396;34
02.03.21;16:25:00;1;259;7499;0;2;2576;24076;4;2714;386;38;3;1396;15090;4;1475;427;30;4;1833;21524;5;1909;234;32;5;0;0;0;0;0;0;0;0;6;2019;37602;4;1041;1021;609;578;33;7;3178;33301;4;3338;485;37;8;3144;32935;4;3298;477;36;9;1406;18144;4;1489;437;35
02.03.21;16:20:00;1;259;7478;0;2;2709;23862;4;2858;397;39;3;1443;14974;4;1524;422;30;4;1869;21372;5;1947;223;32;5;0;0;0;0;0;0;0;0;6;2172;37433;4;1100;1073;608;579;33;7;3318;33038;4;3487;481;37;8;3280;32678;4;3440;481;37;9;1557;18030;4;1650;454;36
02.03.21;16:15:00;1;263;7456;0;2;2835;23635;4;2989;390;40;3;1508;14853;4;1590;424;31;4;1891;21216;5;1970;219;32;5;0;0;0;0;0;0;0;0;6;2370;37250;4;1233;1205;606;577;33;7;3497;32763;4;3678;482;38;8;3459;32402;4;3630;473;37;9;1744;17899;4;1851;492;37
02.03.21;16:10:00;1;294;7434;0;2;2952;23398;4;3114;392;41;3;1542;14728;4;1626;421;31;4;1895;21059;5;1974;204;33;5;0;0;0;0;0;0;0;0;6;2527;37051;4;1296;1265;602;577;33;7;3634;32469;4;3816;482;38;8;3577;32111;4;3762;477;38;9;1885;17753;4;2000;506;38
02.03.21;16:05:00;1;319;7409;0;2;3074;23153;4;3244;395;41;3;1559;14599;4;1643;410;31;4;1901;20901;5;1980;200;33;5;0;0;0;0;0;0;0;0;6;2711;36840;4;1412;1363;602;578;33;7;3770;32166;4;3963;483;38;8;3726;31814;4;3918;473;38;9;2006;17596;4;2129;518;39
02.03.21;16:00:00;1;332;7382;0;2;3163;22897;4;3337;395;42;3;1641;14469;4;1724;397;32;4;1879;20742;5;1958;220;34;5;0;0;0;0;0;0;0;0;6;2889;36613;4;1495;1453;603;579;33;7;3880;31851;4;4082;479;39;8;3843;31502;4;4037;471;38;9;2102;17428;4;2229;526;39
02.03.21;15:55:00;1;360;7355;0;2;3269;22634;4;3454;402;42;3;1760;14333;4;1849;419;32;4;1939;20585;5;2020;222;34;5;0;0;0;0;0;0;0;0;6;3059;36371;4;1568;1535;601;577;34;7;4022;31528;4;4227;475;39;8;3970;31185;4;4167;475;39;9;2168;17254;4;2296;522;40
02.03.21;15:50:00;1;315;7325;0;2;3347;22361;4;3534;402;43;3;1798;14187;4;1893;415;33;4;1980;20424;5;2062;228;35;5;0;0;0;0;0;0;0;0;6;3187;36115;4;1637;1604;598;575;34;7;4122;31193;4;4325;475;40;8;4067;30855;4;4271;472;39;9;2228;17074;4;2360;522;40
02.03.21;15:45:00;1;281;7300;0;2;3418;22083;4;3608;395;43;3;1836;14037;4;1929;407;33;4;2018;20259;5;2102;227;35;5;0;0;0;0;0;0;0;0;6;3348;35848;4;1737;1686;595;571;34;7;4237;30850;4;4457;476;40;8;4189;30513;4;4399;469;40;9;2294;16887;4;2433;519;41
02.03.21;15:40:00;1;352;7277;0;2;3472;21799;4;3662;393;44;3;1859;13884;4;1955;419;33;4;2096;20090;5;2183;233;36;5;0;0;0;0;0;0;0;0;6;3487;35569;4;1806;1741;594;571;34;7;4294;30497;4;4519;471;40;8;4254;30165;4;4468;459;40;9;2334;16696;4;2471;515;41
02.03.21;15:35:00;1;400;7248;0;2;3545;21509;4;3739;385;44;3;1950;13729;4;2050;419;34;4;2265;19916;5;2360;239;37;5;0;0;0;0;0;0;0;0;6;3661;35276;4;1901;1836;591;570;34;7;4413;30139;4;4654;468;40;8;4379;29810;4;4596;464;40;9;2397;16502;4;2543;520;41
02.03.21;15:30:00;1;296;7186;0;2;3636;21213;4;3838;394;45;3;1998;13567;4;2101;423;34;4;2382;19727;5;2482;236;37;5;0;0;0;0;0;0;0;0;6;3825;34970;4;1974;1905;594;572;34;7;4553;29772;4;4785;473;41;8;4502;29448;4;4729;465;41;9;2474;16303;4;2622;511;42
02.03.21;15:25:00;1;259;7161;0;2;3691;20911;4;3891;384;45;3;2044;13401;4;2143;421;34;4;2557;19529;5;2663;235;38;5;0;0;0;0;0;0;0;0;6;4001;34649;4;2084;2008;595;571;35;7;4681;29394;4;4913;477;41;8;4641;29070;4;4871;461;41;9;2549;16096;4;2699;513;42
02.03.21;15:20:00;1;280;7139;0;2;3760;20603;4;3968;393;45;3;2090;13231;4;2196;425;35;4;2723;19317;5;2836;236;39;5;0;0;0;0;0;0;0;0;6;4132;34316;4;2140;2063;591;568;35;7;4777;29003;4;5025;469;41;8;4742;28684;4;4978;463;41;9;2604;15884;4;2759;515;42
02.03.21;15:15:00;1;311;7116;0;2;3820;20290;4;4030;387;46;3;2150;13056;4;2257;432;35;4;2875;19089;5;2994;238;39;5;0;0;0;0;0;0;0;0;6;4274;33970;4;2218;2134;588;566;35;7;4872;28604;4;5127;467;42;8;4825;28288;4;5073;463;41;9;2651;15666;4;2807;516;43
02.03.21;15:10:00;1;370;7090;0;2;3875;19971;4;4095;389;46;3;2176;12877;4;2289;430;35;4;3034;18850;5;3160;236;40;5;0;0;0;0;0;0;0;0;6;4426;33613;4;2307;2230;586;565;35;7;4924;28198;4;5180;465;42;8;4876;27886;4;5127;463;42;9;2691;15446;4;2846;502;43
02.03.21;15:05:00;1;577;7059;0;2;3896;19649;4;4119;397;46;3;2199;12696;4;2312;425;36;4;3115;18597;5;3245;233;40;5;0;0;0;0;0;0;0;0;6;4548;33243;4;2372;2293;585;563;35;7;4998;27788;4;5261;465;42;8;4964;27480;4;5215;455;42;9;2734;15221;4;2898;508;44
02.03.21;15:00:00;1;535;7020;0;2;3952;19324;4;4177;397;47;3;2245;12513;4;2359;431;36;4;3244;18337;5;3379;234;41;5;0;0;0;0;0;0;0;0;6;4685;32863;4;2429;2337;585;565;35;7;5097;27371;4;5367;461;42;8;5038;27065;4;5298;460;42;9;2777;14993;4;2944;514;44
02.03.21;14:55:00;1;296;6972;0;2;4034;18994;4;4259;387;47;3;2318;12325;4;2437;437;37;4;3369;18067;5;3509;233;41;5;0;0;0;0;0;0;0;0;6;4830;32472;4;2511;2408;584;561;35;7;5207;26946;4;5474;457;43;8;5147;26650;4;5414;453;42;9;2849;14763;4;3013;508;44
02.03.21;14:50:00;1;296;6947;0;2;4082;18659;4;4308;386;47;3;2349;12132;4;2467;434;37;4;3447;17786;5;3590;232;42;5;0;0;0;0;0;0;0;0;6;4961;32069;4;2585;2492;582;559;35;7;5284;26512;4;5570;455;43;8;5235;26218;4;5512;457;42;9;2902;14524;4;3072;505;44
02.03.21;14:45:00;1;339;6922;0;2;4132;18319;4;4345;383;47;3;2411;11936;4;2533;438;37;4;3570;17499;5;3719;231;42;5;0;0;0;0;0;0;0;0;6;5094;31654;4;2647;2545;576;557;35;7;5397;26072;4;5675;461;43;8;5337;25781;4;5617;450;42;9;2956;14282;4;3132;506;44
02.03.21;14:40:00;1;390;6894;0;2;4155;17973;4;4372;377;47;3;2550;11735;4;2681;466;38;4;3657;17200;5;3809;230;42;5;0;0;0;0;0;0;0;0;6;5205;31228;4;2685;2591;576;555;35;7;5476;25622;4;5769;456;43;8;5418;25337;4;5698;453;43;9;2992;14036;4;3172;511;45
02.03.21;14:35:00;1;349;6862;0;2;4197;17627;4;4426;383;47;3;2674;11522;4;2812;480;38;4;3714;16895;5;3869;230;42;5;0;0;0;0;0;0;0;0;6;5317;30793;4;2777;2680;573;554;36;7;5534;25166;4;5826;457;43;8;5470;24884;4;5751;453;42;9;3032;13787;4;3209;506;45
02.03.21;14:30:00;1;381;6802;0;2;4243;17278;4;4470;384;47;3;2760;11300;4;2904;488;38;4;3799;16586;5;3957;230;42;5;0;0;0;0;0;0;0;0;6;5446;30348;4;2840;2726;574;556;36;7;5601;24705;4;5891;457;43;8;5518;24428;4;5805;449;42;9;3065;13533;4;3241;498;45
02.03.21;14:25:00;1;407;6770;0;2;4256;16925;4;4480;383;47;3;2789;11070;4;2930;486;38;4;3859;16270;5;4020;232;42;5;0;0;0;0;0;0;0;0;6;5560;29894;4;2893;2773;575;559;36;7;5660;24243;4;5955;456;43;8;5583;23973;4;5869;450;42;9;3100;13281;4;3279;504;45